Weather History for Marion, VA

Change the Weather History Date:

Saturday, March 16, 2013

  Actual Average (KGEV) Record (KGEV)
Temperature  
Mean Temperature 57 °F -  
Max Temperature 70 °F 52 °F 68 °F (2002)
Min Temperature 45 °F 29 °F 5 °F (1993)
Degree Days  
Heating Degree Days 8    
Growing Degree Days 7 (Base 50)    
Moisture  
Dew Point 46 °F    
Average Humidity 68    
Maximum Humidity 98    
Minimum Humidity 41    
Precipitation  
Precipitation 0.01 in - - ()
Sea Level Pressure  
Sea Level Pressure 29.82 in    
Wind  
Wind Speed 15 mph (WSW)    
Max Wind Speed 33 mph    
Max Gust Speed 43 mph    
Visibility 10 miles    
Events Rain , Thunderstorm    
Averages and records for this station are not official NWS values.
T = Trace of Precipitation, MM = Missing Value Source: NWS Daily Summary

Daily Weather History Graph

Daily Weather History Graph

Search for Another Location

Airport:

Trip Planner

Search our weather history database for the weather conditions in past years. The results will help you decide how hot, cold, wet, or windy it might be!

Date:

Astronomy

Mar. 16, 2013 Rise Set
Actual Time 7:34 AM EDT 7:33 PM EDT
Civil Twilight 7:08 AM EDT 7:59 PM EDT
Nautical Twilight 6:38 AM EDT 8:29 PM EDT
Astronomical Twilight 6:08 AM EDT 9:00 PM EDT
Moon 10:10 AM EDT (3/16) No Moon Set
Length of Visible Light 12h 51m
Length of Day
11h 59m
Waxing Crescent, 23% of the Moon is Illuminated
Mar 16
Waxing Crescent
Mar 19
First Quarter
Mar 27
Full
Apr 3
Last Quarter
Apr 10
New

Hourly Weather History & Observations

Time (EDT) Temp. Windchill Dew Point Humidity Pressure Visibility Wind Dir Wind Speed Gust Speed Precip Events Conditions
12:15 AM 45.3 °F 41.6 °F 35.4 °F 68% 29.90 in 10.0 mi West 6.9 mph - N/A   Clear
12:35 AM 45.5 °F 41.3 °F 35.6 °F 68% 29.89 in 10.0 mi WSW 8.1 mph - N/A   Clear
12:55 AM 46.4 °F 41.9 °F 36.0 °F 67% 29.89 in 10.0 mi WSW 9.2 mph - N/A   Clear
1:15 AM 45.9 °F 41.7 °F 35.8 °F 68% 29.88 in 10.0 mi WSW 8.1 mph - N/A   Clear
1:35 AM 45.7 °F 41.0 °F 36.0 °F 69% 29.88 in 10.0 mi SW 9.2 mph - N/A   Scattered Clouds
1:55 AM 45.5 °F 39.9 °F 36.1 °F 70% 29.87 in 10.0 mi West 11.5 mph - N/A   Scattered Clouds
2:35 AM 47.1 °F - 37.4 °F 69% 29.86 in 10.0 mi WSW 12.7 mph 19.6 mph N/A   Scattered Clouds
2:55 AM 47.8 °F - 39.6 °F 73% 29.86 in 10.0 mi WSW 16.1 mph 19.6 mph N/A   Overcast
3:15 AM 47.5 °F - 40.8 °F 78% 29.84 in 10.0 mi WSW 16.1 mph - N/A   Mostly Cloudy
3:35 AM 48.2 °F - 41.9 °F 79% 29.83 in 10.0 mi WSW 15.0 mph - N/A   Scattered Clouds
3:55 AM 48.0 °F - 41.9 °F 79% 29.82 in 10.0 mi WSW 11.5 mph - N/A   Clear
4:15 AM 47.3 °F - 41.9 °F 82% 29.82 in 10.0 mi WSW 10.4 mph - N/A   Clear
4:35 AM 46.8 °F - 41.5 °F 82% 29.82 in 10.0 mi WSW 10.4 mph - N/A Thunderstorm Clear
4:55 AM 46.9 °F - 41.4 °F 81% 29.82 in 10.0 mi WSW 10.4 mph - N/A   Clear
5:15 AM 47.3 °F - 41.5 °F 80% 29.82 in 10.0 mi WSW 13.8 mph - N/A   Scattered Clouds
5:35 AM 48.2 °F - 41.4 °F 77% 29.81 in 10.0 mi WSW 13.8 mph 19.6 mph N/A   Scattered Clouds
5:55 AM 48.0 °F - 41.4 °F 78% 29.81 in 10.0 mi WSW 11.5 mph - N/A   Clear
6:15 AM 49.8 °F - 42.4 °F 76% 29.81 in 10.0 mi WSW 19.6 mph 26.5 mph N/A   Scattered Clouds
6:35 AM 51.8 °F - 42.8 °F 71% 29.81 in 10.0 mi West 20.7 mph 28.8 mph N/A   Mostly Cloudy
6:55 AM 52.3 °F - 43.0 °F 70% 29.81 in 10.0 mi West 25.3 mph 36.8 mph N/A   Scattered Clouds
7:15 AM 52.3 °F - 43.7 °F 72% 29.81 in 10.0 mi West 23.0 mph 33.4 mph N/A   Scattered Clouds
7:35 AM 52.7 °F - 43.3 °F 70% 29.82 in 10.0 mi WSW 24.2 mph 31.1 mph N/A   Clear
7:55 AM 53.4 °F - 43.5 °F 69% 29.81 in 10.0 mi West 26.5 mph 33.4 mph N/A   Clear
8:15 AM 53.6 °F - 43.7 °F 69% 29.82 in 10.0 mi West 23.0 mph 31.1 mph N/A   Clear
8:35 AM 53.8 °F - 43.7 °F 69% 29.82 in 10.0 mi West 20.7 mph 33.4 mph N/A   Scattered Clouds
8:55 AM 55.0 °F - 43.9 °F 66% 29.82 in 10.0 mi WSW 18.4 mph 27.6 mph N/A   Clear
9:15 AM 55.9 °F - 44.1 °F 64% 29.82 in 10.0 mi West 16.1 mph 24.2 mph N/A   Clear
9:35 AM 57.6 °F - 43.5 °F 59% 29.82 in 10.0 mi West 23.0 mph 31.1 mph N/A   Clear
9:55 AM 58.3 °F - 43.0 °F 57% 29.82 in 10.0 mi West 28.8 mph 34.5 mph N/A   Clear
10:15 AM 59.5 °F - 43.0 °F 54% 29.82 in 10.0 mi West 24.2 mph 33.4 mph N/A   Clear
10:35 AM 60.6 °F - 42.6 °F 52% 29.82 in 10.0 mi WSW 21.9 mph 32.2 mph N/A   Clear
10:55 AM 61.5 °F - 43.0 °F 51% 29.81 in 10.0 mi West 24.2 mph 34.5 mph N/A   Clear
11:15 AM 62.1 °F - 42.8 °F 49% 29.81 in 10.0 mi WSW 25.3 mph 35.7 mph N/A   Clear
11:35 AM 63.7 °F - 43.2 °F 47% 29.80 in 10.0 mi West 23.0 mph 32.2 mph N/A   Clear
11:55 AM 63.9 °F - 42.8 °F 46% 29.79 in 10.0 mi WSW 33.4 mph 39.1 mph N/A   Clear
12:15 PM 64.6 °F - 43.0 °F 45% 29.79 in 10.0 mi WSW 20.7 mph 35.7 mph N/A   Clear
12:35 PM 66.4 °F - 43.7 °F 44% 29.79 in 10.0 mi WSW 18.4 mph 42.6 mph N/A   Clear
12:55 PM 66.4 °F - 43.3 °F 43% 29.79 in 10.0 mi WSW 28.8 mph 34.5 mph N/A   Clear
1:15 PM 67.6 °F - 43.5 °F 42% 29.79 in 10.0 mi WSW 23.0 mph 32.2 mph N/A   Clear
1:35 PM 67.3 °F - 43.7 °F 42% 29.78 in 10.0 mi WSW 24.2 mph 36.8 mph N/A   Clear
1:55 PM 67.5 °F - 43.9 °F 43% 29.78 in 10.0 mi SW 19.6 mph 32.2 mph N/A   Scattered Clouds
2:15 PM 68.2 °F - 44.1 °F 42% 29.77 in 10.0 mi WSW 20.7 mph 31.1 mph N/A   Scattered Clouds
2:35 PM 69.4 °F - 44.4 °F 41% 29.77 in 10.0 mi WSW 19.6 mph 27.6 mph N/A   Clear
2:55 PM 68.2 °F - 44.2 °F 42% 29.76 in 10.0 mi WSW 25.3 mph 38.0 mph N/A   Clear
3:15 PM 69.6 °F - 44.8 °F 41% 29.75 in 10.0 mi WSW 23.0 mph 31.1 mph N/A   Clear
3:35 PM 68.5 °F - 44.8 °F 42% 29.75 in 10.0 mi WSW 20.7 mph 32.2 mph N/A   Scattered Clouds
3:55 PM 69.6 °F - 44.8 °F 41% 29.74 in 10.0 mi West 26.5 mph 32.2 mph N/A   Clear
4:15 PM 67.8 °F - 45.0 °F 44% 29.74 in 10.0 mi WSW 23.0 mph 33.4 mph N/A   Clear
4:35 PM 67.1 °F - 45.5 °F 46% 29.73 in 10.0 mi WSW 23.0 mph 31.1 mph N/A   Clear
4:55 PM 68.2 °F - 45.5 °F 44% 29.72 in 10.0 mi WSW 25.3 mph 36.8 mph N/A   Clear
5:15 PM 66.4 °F - 45.7 °F 47% 29.75 in 10.0 mi West 23.0 mph 29.9 mph N/A Thunderstorm Thunderstorm
5:35 PM 62.1 °F - 50.5 °F 66% 29.79 in 7.0 mi West 28.8 mph 38.0 mph N/A Rain Light Rain
5:55 PM 60.3 °F - 51.6 °F 73% 29.80 in 7.0 mi West 13.8 mph 24.2 mph 0.01 in   Light Drizzle
6:15 PM 60.1 °F - 52.2 °F 75% 29.82 in 10.0 mi West 16.1 mph 23.0 mph N/A   Overcast
6:35 PM 59.4 °F - 52.7 °F 79% 29.82 in 10.0 mi WSW 12.7 mph 17.3 mph N/A   Overcast
6:55 PM 58.5 °F - 53.1 °F 82% 29.84 in 10.0 mi WSW 13.8 mph 23.0 mph N/A   Overcast
7:15 PM 57.7 °F - 54.7 °F 90% 29.84 in 10.0 mi WSW 12.7 mph - N/A   Overcast
7:35 PM 57.4 °F - 54.7 °F 91% 29.84 in 10.0 mi WSW 11.5 mph - N/A   Overcast
7:55 PM 57.2 °F - 54.7 °F 91% 29.85 in 10.0 mi WSW 13.8 mph - N/A   Mostly Cloudy
8:15 PM 56.7 °F - 55.4 °F 96% 29.86 in 10.0 mi WSW 13.8 mph - N/A   Scattered Clouds
8:35 PM 56.3 °F - 55.4 °F 97% 29.86 in 10.0 mi WSW 12.7 mph - N/A   Clear
8:55 PM 56.3 °F - 55.2 °F 96% 29.87 in 10.0 mi WSW 12.7 mph - N/A   Clear
9:15 PM 56.3 °F - 55.4 °F 97% 29.87 in 10.0 mi WSW 13.8 mph - N/A   Clear
9:35 PM 56.3 °F - 54.7 °F 94% 29.88 in 10.0 mi WSW 11.5 mph - N/A   Clear
9:55 PM 56.3 °F - 54.3 °F 93% 29.88 in 10.0 mi WSW 13.8 mph - N/A   Clear
10:15 PM 56.1 °F - 54.7 °F 95% 29.88 in 10.0 mi WSW 11.5 mph - N/A   Clear
10:35 PM 55.8 °F - 54.7 °F 96% 29.89 in 10.0 mi WSW 11.5 mph - N/A   Clear
10:55 PM 55.6 °F - 54.9 °F 97% 29.89 in 10.0 mi WSW 13.8 mph - N/A   Clear
11:15 PM 55.0 °F - 54.5 °F 98% 29.90 in 10.0 mi WSW 11.5 mph - N/A   Scattered Clouds
11:35 PM 55.8 °F - 53.8 °F 93% 29.91 in 10.0 mi WSW 9.2 mph - N/A   Mostly Cloudy
11:55 PM 55.4 °F - 53.8 °F 94% 29.91 in 10.0 mi WSW 9.2 mph - N/A   Scattered Clouds